EWG47 EDDM-EDDK

Flight info

Callsign EWG47
Flight time 0h 40m
Altitude 31000
Route GIVMI1N/26R GIVMI Y101 ERNAS T161 GOLMO DCT AKANU L603 RATIM DCT ASKIK T840 GULKO GULKO1B
Aircraft A319/M-SDE3FGHIRWY/LB1

Departure

Time 2026-05-04 20:18
Airport Munich Airport (EDDM)

Arrival

Time 2026-05-04 20:58
Airport Cologne Bonn Airport (EDDK)
Time Latitude Longitude Altitude Speed Heading
2026-05-04 19:47 48.35620 11.79725 1460 ft 0 kts 84°
2026-05-04 20:08 48.35620 11.79724 1467 ft 1 kts 84°
2026-05-04 20:09 48.35617 11.79688 1459 ft 4 kts 79°
2026-05-04 20:09 48.35610 11.79648 1465 ft 4 kts 73°
2026-05-04 20:09 48.35601 11.79610 1458 ft 4 kts 63°
2026-05-04 20:09 48.35587 11.79578 1458 ft 4 kts 33°
2026-05-04 20:10 48.35572 11.79570 1463 ft 0 kts 353°
2026-05-04 20:12 48.35575 11.79569 1459 ft 1 kts 353°
2026-05-04 20:12 48.35592 11.79566 1462 ft 4 kts 353°
2026-05-04 20:12 48.35633 11.79560 1462 ft 8 kts 355°
2026-05-04 20:12 48.35697 11.79550 1458 ft 10 kts 354°
2026-05-04 20:13 48.35776 11.79536 1467 ft 13 kts 353°
2026-05-04 20:13 48.35869 11.79520 1462 ft 15 kts 353°
2026-05-04 20:13 48.35976 11.79502 1464 ft 16 kts 353°
2026-05-04 20:13 48.36094 11.79482 1468 ft 18 kts 353°
2026-05-04 20:14 48.36200 11.79486 1468 ft 14 kts 34°
2026-05-04 20:14 48.36226 11.79632 1466 ft 16 kts 84°
2026-05-04 20:14 48.36239 11.79803 1464 ft 17 kts 82°
2026-05-04 20:14 48.36255 11.79990 1468 ft 19 kts 83°
2026-05-04 20:15 48.36270 11.80195 1468 ft 21 kts 84°
2026-05-04 20:15 48.36287 11.80418 1468 ft 22 kts 83°
2026-05-04 20:15 48.36306 11.80656 1467 ft 24 kts 83°
2026-05-04 20:15 48.36326 11.80912 1467 ft 26 kts 83°
2026-05-04 20:16 48.36343 11.81149 1467 ft 14 kts 84°
2026-05-04 20:16 48.36405 11.81223 1463 ft 15 kts 316°
2026-05-04 20:16 48.36456 11.81055 1460 ft 20 kts 294°
2026-05-04 20:16 48.36520 11.80836 1467 ft 26 kts 294°
2026-05-04 20:17 48.36574 11.80636 1469 ft 18 kts 277°
2026-05-04 20:17 48.36554 11.80364 1464 ft 49 kts 264°
2026-05-04 20:17 48.36493 11.79524 1463 ft 110 kts 264°
2026-05-04 20:17 48.36391 11.78106 1483 ft 159 kts 265°
2026-05-04 20:18 48.36269 11.76426 1969 ft 163 kts 264°
2026-05-04 20:18 48.36145 11.74720 2586 ft 165 kts 264°
2026-05-04 20:18 48.36014 11.72937 2964 ft 179 kts 264°
2026-05-04 20:18 48.35875 11.71010 3313 ft 196 kts 264°
2026-05-04 20:19 48.35756 11.68871 3636 ft 218 kts 270°
2026-05-04 20:19 48.36161 11.66567 4026 ft 241 kts 300°
2026-05-04 20:19 48.37125 11.64398 4635 ft 259 kts 303°
2026-05-04 20:19 48.38176 11.62086 5312 ft 275 kts 303°
2026-05-04 20:20 48.39244 11.59666 6262 ft 278 kts 301°
2026-05-04 20:20 48.40253 11.57184 7255 ft 278 kts 298°
2026-05-04 20:20 48.41312 11.54728 8165 ft 284 kts 309°
2026-05-04 20:20 48.42775 11.52681 9068 ft 289 kts 316°
2026-05-04 20:21 48.44307 11.50689 9957 ft 293 kts 316°
2026-05-04 20:21 48.45899 11.48631 10420 ft 313 kts 316°
2026-05-04 20:21 48.49426 11.44007 10926 ft 357 kts 315°
2026-05-04 20:22 48.51285 11.41459 11508 ft 365 kts 314°
2026-05-04 20:22 48.53159 11.38854 12213 ft 368 kts 314°
2026-05-04 20:22 48.55055 11.36207 12899 ft 373 kts 314°
2026-05-04 20:22 48.56965 11.33537 13583 ft 377 kts 314°
2026-05-04 20:23 48.58902 11.30829 14204 ft 381 kts 314°
2026-05-04 20:23 48.60859 11.28099 14812 ft 385 kts 314°
2026-05-04 20:23 48.62834 11.25358 15446 ft 388 kts 314°
2026-05-04 20:23 48.64831 11.22591 16085 ft 390 kts 314°
2026-05-04 20:24 48.66839 11.19808 16730 ft 393 kts 314°
2026-05-04 20:24 48.68862 11.16996 17377 ft 396 kts 314°
2026-05-04 20:24 48.70894 11.14165 18010 ft 399 kts 314°
2026-05-04 20:24 48.72944 11.11301 18597 ft 402 kts 314°
2026-05-04 20:25 48.75008 11.08414 19139 ft 405 kts 314°
2026-05-04 20:25 48.77088 11.05496 19677 ft 409 kts 314°
2026-05-04 20:25 48.79182 11.02557 20197 ft 412 kts 314°
2026-05-04 20:25 48.81297 10.99586 20702 ft 416 kts 314°
2026-05-04 20:26 48.83426 10.96591 21217 ft 419 kts 314°
2026-05-04 20:26 48.85564 10.93580 21721 ft 421 kts 314°
2026-05-04 20:26 48.87689 10.90584 22200 ft 424 kts 314°
2026-05-04 20:26 48.89858 10.87518 22665 ft 427 kts 314°
2026-05-04 20:27 48.92032 10.84437 23122 ft 429 kts 314°
2026-05-04 20:27 48.94222 10.81325 23573 ft 432 kts 314°
2026-05-04 20:27 48.96424 10.78188 23944 ft 435 kts 314°
2026-05-04 20:27 48.98633 10.75034 24325 ft 437 kts 314°
2026-05-04 20:28 49.00858 10.71854 24702 ft 439 kts 314°
2026-05-04 20:28 49.03093 10.68654 25090 ft 442 kts 314°
2026-05-04 20:28 49.05340 10.65442 25469 ft 444 kts 314°
2026-05-04 20:28 49.07592 10.62185 25853 ft 447 kts 313°
2026-05-04 20:29 49.09794 10.58938 26161 ft 448 kts 314°
2026-05-04 20:29 49.12022 10.55612 26420 ft 450 kts 312°
2026-05-04 20:29 49.14264 10.52247 26781 ft 453 kts 312°
2026-05-04 20:29 49.16519 10.48870 27116 ft 455 kts 312°
2026-05-04 20:30 49.18790 10.45479 27448 ft 457 kts 312°
2026-05-04 20:30 49.21072 10.42077 27778 ft 460 kts 312°
2026-05-04 20:30 49.23354 10.38643 28098 ft 461 kts 310°
2026-05-04 20:30 49.25436 10.34913 28408 ft 461 kts 306°
2026-05-04 20:31 49.27471 10.31109 28717 ft 463 kts 306°
2026-05-04 20:31 49.29511 10.27287 29031 ft 465 kts 306°
2026-05-04 20:31 49.31556 10.23451 29445 ft 464 kts 305°
2026-05-04 20:31 49.33598 10.19615 29918 ft 463 kts 305°
2026-05-04 20:32 49.35631 10.15795 30335 ft 462 kts 305°
2026-05-04 20:32 49.37661 10.11981 30727 ft 461 kts 305°
2026-05-04 20:32 49.39684 10.08174 30955 ft 460 kts 305°
2026-05-04 20:32 49.41672 10.04424 31003 ft 457 kts 305°
2026-05-04 20:33 49.45666 9.96871 31002 ft 455 kts 305°
2026-05-04 20:33 49.49646 9.89318 31000 ft 454 kts 305°
2026-05-04 20:34 49.53627 9.81734 30998 ft 456 kts 304°
2026-05-04 20:34 49.57613 9.74130 30997 ft 455 kts 304°
2026-05-04 20:35 49.61589 9.66532 30993 ft 455 kts 304°
2026-05-04 20:35 49.65545 9.58932 30984 ft 454 kts 304°
2026-05-04 20:36 49.69419 9.51246 30982 ft 451 kts 298°
2026-05-04 20:36 49.72559 9.42906 30985 ft 449 kts 295°
2026-05-04 20:37 49.75669 9.34523 30974 ft 450 kts 295°
2026-05-04 20:37 49.78782 9.26132 30974 ft 450 kts 295°
2026-05-04 20:38 49.81888 9.17724 30968 ft 450 kts 295°
2026-05-04 20:38 49.84984 9.09291 30979 ft 450 kts 295°
2026-05-04 20:39 49.88760 9.01537 30576 ft 459 kts 315°
2026-05-04 20:39 49.91237 8.98381 29753 ft 462 kts 317°
2026-05-04 20:39 49.93755 8.95266 28752 ft 464 kts 317°
2026-05-04 20:40 49.96302 8.92157 27776 ft 467 kts 318°
2026-05-04 20:40 49.98863 8.89041 27241 ft 470 kts 318°
2026-05-04 20:40 50.01440 8.85886 26726 ft 472 kts 318°
2026-05-04 20:40 50.04013 8.82712 26221 ft 473 kts 317°
2026-05-04 20:41 50.06591 8.79507 25718 ft 474 kts 317°
2026-05-04 20:41 50.09165 8.76287 25199 ft 476 kts 317°
2026-05-04 20:41 50.11737 8.73058 24669 ft 473 kts 317°
2026-05-04 20:41 50.14298 8.69852 24150 ft 470 kts 317°
2026-05-04 20:42 50.16829 8.66650 23637 ft 467 kts 317°
2026-05-04 20:42 50.19324 8.63438 23049 ft 463 kts 317°
2026-05-04 20:42 50.21785 8.60229 22455 ft 459 kts 316°
2026-05-04 20:42 50.24221 8.57031 21873 ft 455 kts 316°
2026-05-04 20:43 50.26640 8.53855 21302 ft 451 kts 316°
2026-05-04 20:43 50.29034 8.50711 20743 ft 448 kts 316°
2026-05-04 20:43 50.31408 8.47597 20182 ft 444 kts 317°
2026-05-04 20:43 50.33775 8.44502 19657 ft 441 kts 317°
2026-05-04 20:44 50.36119 8.41445 19128 ft 438 kts 317°
2026-05-04 20:44 50.38455 8.38403 18610 ft 435 kts 317°
2026-05-04 20:44 50.40767 8.35386 18072 ft 432 kts 317°
2026-05-04 20:44 50.43063 8.32374 17507 ft 427 kts 317°
2026-05-04 20:45 50.45330 8.29382 16929 ft 423 kts 317°
2026-05-04 20:45 50.47564 8.26401 16362 ft 419 kts 316°
2026-05-04 20:45 50.49026 8.24439 15995 ft 417 kts 316°
2026-05-04 20:45 50.51220 8.21483 15447 ft 414 kts 316°
2026-05-04 20:46 50.53394 8.18545 14911 ft 411 kts 316°
2026-05-04 20:46 50.55552 8.15630 14378 ft 408 kts 316°
2026-05-04 20:46 50.58399 8.11791 13675 ft 402 kts 316°
2026-05-04 20:46 50.59814 8.09861 13344 ft 395 kts 314°
2026-05-04 20:47 50.61639 8.06795 13208 ft 372 kts 308°
2026-05-04 20:47 50.63314 8.03814 12930 ft 357 kts 308°
2026-05-04 20:47 50.64944 8.00923 12507 ft 349 kts 308°
2026-05-04 20:47 50.66517 7.98128 12104 ft 341 kts 308°
2026-05-04 20:48 50.68089 7.95322 11705 ft 334 kts 308°
2026-05-04 20:48 50.69594 7.92628 11303 ft 329 kts 307°
2026-05-04 20:48 50.71092 7.89942 10913 ft 324 kts 307°
2026-05-04 20:48 50.72571 7.87287 10523 ft 320 kts 307°
2026-05-04 20:49 50.74030 7.84658 10135 ft 317 kts 307°
2026-05-04 20:49 50.75456 7.82085 9990 ft 305 kts 307°
2026-05-04 20:49 50.76825 7.79623 9997 ft 295 kts 307°
2026-05-04 20:49 50.78169 7.77197 9997 ft 293 kts 307°
2026-05-04 20:50 50.79506 7.74773 10004 ft 293 kts 307°
2026-05-04 20:50 50.80852 7.72326 9642 ft 298 kts 307°
2026-05-04 20:50 50.82217 7.69848 9087 ft 300 kts 307°
2026-05-04 20:50 50.83603 7.67373 8533 ft 301 kts 310°
2026-05-04 20:51 50.85265 7.65347 8000 ft 303 kts 323°
2026-05-04 20:51 50.87027 7.63522 7475 ft 303 kts 323°
2026-05-04 20:51 50.88789 7.61711 6954 ft 301 kts 323°
2026-05-04 20:51 50.90535 7.59913 6438 ft 297 kts 323°
2026-05-04 20:52 50.92244 7.58137 5896 ft 291 kts 322°
2026-05-04 20:52 50.93656 7.55944 5365 ft 281 kts 304°
2026-05-04 20:52 50.94685 7.53364 4876 ft 273 kts 295°
2026-05-04 20:52 50.95525 7.50731 4460 ft 262 kts 287°
2026-05-04 20:53 50.95919 7.47994 4052 ft 250 kts 270°
2026-05-04 20:53 50.95781 7.45311 3647 ft 240 kts 253°
2026-05-04 20:53 50.95198 7.42885 3245 ft 232 kts 241°
2026-05-04 20:53 50.94515 7.40610 3005 ft 224 kts 242°
2026-05-04 20:54 50.93871 7.38453 3007 ft 208 kts 242°
2026-05-04 20:54 50.93273 7.36456 2998 ft 195 kts 242°
2026-05-04 20:54 50.92712 7.34585 2910 ft 182 kts 242°
2026-05-04 20:54 50.92184 7.32827 2684 ft 170 kts 242°
2026-05-04 20:55 50.91693 7.31195 2467 ft 158 kts 242°
2026-05-04 20:55 50.91245 7.29703 2271 ft 146 kts 242°
2026-05-04 20:55 50.90825 7.28264 2042 ft 142 kts 243°
2026-05-04 20:55 50.90410 7.26853 1851 ft 140 kts 241°
2026-05-04 20:56 50.89990 7.25461 1660 ft 140 kts 242°
2026-05-04 20:56 50.89568 7.24083 1503 ft 139 kts 241°
2026-05-04 20:56 50.89134 7.22689 1303 ft 142 kts 241°
2026-05-04 20:56 50.88701 7.21277 1116 ft 141 kts 243°
2026-05-04 20:57 50.88286 7.19874 890 ft 140 kts 243°
2026-05-04 20:57 50.87866 7.18494 721 ft 137 kts 243°
2026-05-04 20:57 50.87450 7.17134 521 ft 137 kts 243°
2026-05-04 20:57 50.87039 7.15777 358 ft 135 kts 243°
2026-05-04 20:58 50.86656 7.14515 264 ft 111 kts 244°
2026-05-04 20:58 50.86436 7.13779 254 ft 39 kts 245°
2026-05-04 20:58 50.86378 7.13495 252 ft 19 kts 281°
2026-05-04 20:58 50.86454 7.13354 250 ft 13 kts 327°
2026-05-04 20:59 50.86521 7.13418 249 ft 15 kts 65°
2026-05-04 20:59 50.86570 7.13585 249 ft 18 kts 65°
2026-05-04 20:59 50.86628 7.13777 251 ft 20 kts 65°
2026-05-04 20:59 50.86687 7.13976 255 ft 20 kts 64°
2026-05-04 21:00 50.86736 7.14120 255 ft 11 kts 46°
2026-05-04 21:00 50.86808 7.14090 255 ft 13 kts 317°
2026-05-04 21:00 50.86883 7.13981 254 ft 17 kts 317°
2026-05-04 21:00 50.86988 7.13826 244 ft 24 kts 317°
2026-05-04 21:01 50.87077 7.13700 241 ft 16 kts 318°
2026-05-04 21:01 50.87154 7.13589 238 ft 16 kts 317°
2026-05-04 21:01 50.87250 7.13448 234 ft 21 kts 317°
2026-05-04 21:01 50.87349 7.13306 232 ft 20 kts 317°
2026-05-04 21:02 50.87453 7.13157 232 ft 19 kts 316°
2026-05-04 21:02 50.87547 7.13022 232 ft 18 kts 319°
2026-05-04 21:02 50.87637 7.12892 232 ft 17 kts 317°
2026-05-04 21:02 50.87722 7.12767 232 ft 16 kts 317°
2026-05-04 21:03 50.87804 7.12648 232 ft 16 kts 320°
2026-05-04 21:03 50.87905 7.12614 232 ft 15 kts 358°
2026-05-04 21:03 50.87953 7.12564 232 ft 7 kts 316°
2026-05-04 21:03 50.87986 7.12512 232 ft 5 kts 297°
2026-05-04 21:04 50.87978 7.12467 232 ft 4 kts 248°
2026-05-04 21:04 50.87968 7.12432 232 ft 2 kts 246°
2026-05-04 21:04 50.87964 7.12419 232 ft 0 kts 246°
2026-05-04 21:04 50.87963 7.12414 232 ft 0 kts 246°
2026-05-04 21:05 50.87963 7.12413 232 ft 0 kts 246°